TimeCDT,TemperatureF,Dew PointF,Humidity,Sea Level PressureIn,VisibilityMPH,Wind Direction,Wind SpeedMPH,Gust SpeedMPH,PrecipitationIn,Events,Conditions,WindDirDegrees,DateUTC
12:15 AM,33.1,32.9,99,29.81,10.0,NW,9.2,-,0.01,,Overcast,310,2013-10-21 05:15:00
12:35 AM,33.3,32.5,97,29.82,10.0,NW,10.4,-,0.01,,Overcast,320,2013-10-21 05:35:00
12:55 AM,33.1,32.0,96,29.83,10.0,NW,8.1,-,0.02,Snow,Light Snow,310,2013-10-21 05:55:00
1:15 AM,32.9,32.0,96,29.83,10.0,NW,9.2,-,N/A,,Overcast,310,2013-10-21 06:15:00
1:35 AM,32.9,32.0,96,29.83,10.0,WNW,6.9,-,N/A,,Overcast,300,2013-10-21 06:35:00
1:55 AM,32.9,32.0,96,29.84,10.0,WNW,5.8,-,N/A,,Overcast,290,2013-10-21 06:55:00
2:15 AM,32.9,31.8,96,29.84,10.0,WNW,5.8,-,N/A,,Overcast,290,2013-10-21 07:15:00
2:35 AM,32.7,31.5,95,29.85,10.0,WNW,9.2,-,N/A,,Overcast,290,2013-10-21 07:35:00
2:55 AM,32.4,30.7,94,29.85,10.0,WNW,6.9,-,N/A,,Overcast,290,2013-10-21 07:55:00
3:15 AM,32.2,30.2,92,29.86,10.0,WNW,8.1,-,N/A,,Overcast,290,2013-10-21 08:15:00
3:35 AM,32.0,29.7,91,29.86,10.0,WNW,8.1,-,N/A,,Overcast,290,2013-10-21 08:35:00
3:55 AM,32.0,28.8,88,29.87,10.0,WNW,6.9,-,N/A,,Overcast,300,2013-10-21 08:55:00
4:15 AM,32.0,28.4,87,29.87,10.0,WNW,8.1,-,N/A,,Overcast,290,2013-10-21 09:15:00
4:35 AM,32.0,28.2,86,29.87,10.0,West,8.1,-,N/A,,Overcast,280,2013-10-21 09:35:00
4:55 AM,31.8,27.9,85,29.87,10.0,West,4.6,-,N/A,,Overcast,280,2013-10-21 09:55:00
5:15 AM,31.6,28.4,88,29.87,10.0,West,4.6,-,N/A,,Overcast,260,2013-10-21 10:15:00
5:35 AM,31.6,28.8,89,29.87,10.0,West,4.6,-,N/A,,Overcast,280,2013-10-21 10:35:00
5:55 AM,31.5,28.4,88,29.87,10.0,West,4.6,-,N/A,,Overcast,280,2013-10-21 10:55:00
6:15 AM,31.5,27.9,87,29.87,10.0,West,4.6,-,N/A,,Overcast,270,2013-10-21 11:15:00
6:35 AM,31.1,27.7,87,29.87,10.0,West,6.9,-,N/A,,Overcast,260,2013-10-21 11:35:00
6:55 AM,31.3,27.3,85,29.87,10.0,West,6.9,-,N/A,,Overcast,260,2013-10-21 11:55:00
7:15 AM,31.1,27.0,85,29.87,10.0,West,6.9,-,N/A,,Overcast,260,2013-10-21 12:15:00
7:35 AM,31.1,26.4,83,29.88,10.0,West,6.9,-,N/A,,Overcast,260,2013-10-21 12:35:00
7:55 AM,31.1,25.5,80,29.88,10.0,West,6.9,-,N/A,,Overcast,280,2013-10-21 12:55:00
8:15 AM,31.1,24.8,77,29.88,10.0,WNW,8.1,-,N/A,,Overcast,290,2013-10-21 13:15:00
8:35 AM,31.1,24.6,77,29.89,10.0,WNW,5.8,-,N/A,,Overcast,300,2013-10-21 13:35:00
8:55 AM,31.1,23.9,75,29.89,10.0,NW,11.5,-,N/A,,Overcast,310,2013-10-21 13:55:00
9:15 AM,31.5,22.3,69,29.89,10.0,WNW,11.5,16.1,N/A,,Overcast,300,2013-10-21 14:15:00
9:35 AM,31.8,21.0,64,29.89,10.0,NW,8.1,16.1,N/A,,Overcast,320,2013-10-21 14:35:00
9:55 AM,32.0,22.8,69,29.90,10.0,West,8.1,-,N/A,,Overcast,270,2013-10-21 14:55:00
10:15 AM,32.0,24.4,74,29.89,10.0,West,10.4,-,N/A,,Overcast,260,2013-10-21 15:15:00
10:35 AM,32.0,25.2,76,29.89,10.0,West,8.1,-,N/A,,Overcast,270,2013-10-21 15:35:00
10:55 AM,32.0,24.6,74,29.89,10.0,West,10.4,16.1,N/A,,Overcast,270,2013-10-21 15:55:00
11:15 AM,33.3,23.7,68,29.88,10.0,West,13.8,18.4,N/A,,Scattered Clouds,270,2013-10-21 16:15:00
11:35 AM,34.0,24.1,67,29.88,10.0,West,12.7,18.4,N/A,,Scattered Clouds,270,2013-10-21 16:35:00
11:55 AM,34.2,22.8,63,29.88,10.0,West,15.0,23.0,0.01,,Mostly Cloudy,280,2013-10-21 16:55:00
12:15 PM,33.8,22.1,62,29.88,10.0,West,17.3,25.3,N/A,,Overcast,260,2013-10-21 17:15:00
12:35 PM,34.3,22.5,62,29.88,10.0,WNW,12.7,21.9,N/A,,Overcast,290,2013-10-21 17:35:00
12:55 PM,34.5,23.0,63,29.87,10.0,West,15.0,21.9,N/A,,Overcast,280,2013-10-21 17:55:00
1:15 PM,34.9,23.2,62,29.87,10.0,WNW,17.3,24.2,0.01,,Overcast,290,2013-10-21 18:15:00
1:35 PM,34.7,21.9,60,29.86,10.0,West,17.3,24.2,0.01,,Overcast,270,2013-10-21 18:35:00
1:55 PM,35.1,22.5,60,29.85,10.0,West,16.1,21.9,0.01,,Overcast,280,2013-10-21 18:55:00
2:15 PM,34.3,22.1,61,29.85,10.0,West,13.8,19.6,N/A,,Overcast,260,2013-10-21 19:15:00
2:35 PM,34.9,22.6,61,29.85,10.0,West,15.0,20.7,0.01,,Overcast,280,2013-10-21 19:35:00
2:55 PM,34.7,22.5,61,29.85,10.0,West,11.5,20.7,0.01,,Overcast,270,2013-10-21 19:55:00
3:15 PM,35.1,23.2,62,29.85,10.0,WNW,11.5,19.6,N/A,,Overcast,290,2013-10-21 20:15:00
3:35 PM,34.7,22.8,62,29.86,10.0,WNW,13.8,20.7,N/A,Snow,Light Snow,290,2013-10-21 20:35:00
3:55 PM,34.7,23.7,64,29.86,10.0,West,15.0,20.7,N/A,,Overcast,280,2013-10-21 20:55:00
4:15 PM,34.3,24.3,67,29.86,10.0,West,11.5,-,N/A,,Overcast,280,2013-10-21 21:15:00
4:35 PM,34.5,24.8,68,29.86,10.0,West,8.1,-,N/A,,Overcast,280,2013-10-21 21:35:00
4:55 PM,34.9,24.4,66,29.86,10.0,West,13.8,18.4,N/A,,Overcast,280,2013-10-21 21:55:00
5:15 PM,35.1,25.3,68,29.87,10.0,WNW,11.5,16.1,N/A,,Overcast,290,2013-10-21 22:15:00
5:35 PM,34.7,25.7,70,29.87,10.0,WNW,9.2,-,N/A,,Overcast,290,2013-10-21 22:35:00
5:55 PM,34.7,25.9,70,29.88,10.0,West,8.1,-,N/A,,Overcast,280,2013-10-21 22:55:00
6:15 PM,34.7,26.2,71,29.88,10.0,West,9.2,-,N/A,,Overcast,280,2013-10-21 23:15:00
6:35 PM,34.5,26.4,72,29.88,10.0,West,6.9,-,N/A,,Overcast,270,2013-10-21 23:35:00
6:55 PM,34.5,26.4,72,29.88,10.0,WNW,12.7,16.1,N/A,,Overcast,290,2013-10-21 23:55:00
7:15 PM,34.3,26.6,73,29.89,10.0,WNW,10.4,17.3,N/A,,Overcast,290,2013-10-22 00:15:00
7:35 PM,34.2,27.0,75,29.88,10.0,West,10.4,-,N/A,,Overcast,270,2013-10-22 00:35:00
7:55 PM,34.0,27.1,76,29.88,10.0,West,9.2,-,N/A,,Overcast,270,2013-10-22 00:55:00
8:15 PM,34.2,27.0,75,29.88,10.0,West,10.4,16.1,N/A,,Overcast,270,2013-10-22 01:15:00
8:35 PM,34.3,26.8,74,29.89,10.0,West,10.4,-,N/A,,Overcast,280,2013-10-22 01:35:00
8:55 PM,34.2,27.1,75,29.89,10.0,West,8.1,-,N/A,,Overcast,280,2013-10-22 01:55:00
9:15 PM,34.5,27.1,74,29.89,10.0,West,9.2,-,N/A,,Overcast,280,2013-10-22 02:15:00
9:35 PM,34.5,27.0,74,29.90,10.0,WNW,9.2,-,N/A,,Overcast,290,2013-10-22 02:35:00
9:55 PM,34.2,27.1,75,29.90,10.0,WNW,6.9,-,N/A,,Overcast,300,2013-10-22 02:55:00
10:15 PM,34.0,27.5,77,29.90,10.0,West,8.1,-,N/A,,Overcast,280,2013-10-22 03:15:00
10:35 PM,33.8,27.5,78,29.90,10.0,West,8.1,-,N/A,,Overcast,280,2013-10-22 03:35:00
10:55 PM,33.8,27.5,78,29.90,10.0,West,5.8,-,N/A,,Overcast,280,2013-10-22 03:55:00
11:15 PM,33.3,27.5,79,29.90,10.0,West,6.9,-,N/A,,Overcast,270,2013-10-22 04:15:00
11:35 PM,32.9,27.5,81,29.90,10.0,West,6.9,-,N/A,,Overcast,280,2013-10-22 04:35:00
11:55 PM,32.7,27.5,81,29.91,10.0,WNW,5.8,-,N/A,,Overcast,290,2013-10-22 04:55:00